Regional Weather Roundup
Issued by NWS

Home | Current Version | Previous Version | Graphics & Text | Print | Product List | Glossary On
Versions: 1 2 3 4 5 6 7 8 9 10 11 12 13 14 15 16 17 18 19 20 21 22 23 24 25 26 27 28 29 30 31 32 33 34 35 36 37 38 39 40 41 42 43 44 45 46 47 48 49 50
742
ASUS43 KMKX 191311
RWRWI

WISCONSIN REGIONAL WEATHER ROUNDUP
NATIONAL WEATHER SERVICE MILWAUKEE/SULLIVAN WI
800 AM CDT SAT AUG 19 2017

NOTE: "FAIR" INDICATES FEW OR NO CLOUDS BELOW 12,000 FEET WITH NO
SIGNIFICANT WEATHER AND/OR OBSTRUCTIONS TO VISIBILITY.

WIZ001-002-006>008-014>016-023>028-191400-
NORTHWEST WISCONSIN

CITY           SKY/WX    TMP DP  RH WIND       PRES   REMARKS
SUPERIOR ARPT    N/A     59  58  96 SW6       29.89S
ASHLAND        SUNNY     62  58  86 SW9       29.89R
HAYWARD        MOSUNNY   59  57  93 SW3       29.93S
SIREN          SUNNY     62  61  97 SW5       29.93S
CUMBERLAND     SUNNY     59  57  94 CALM      29.95R FOG
RICE LAKE      SUNNY     58  58  98 CALM      29.96R FOG
CHETEK         SUNNY     59  59 100 CALM      29.95R FOG
LADYSMITH      MOSUNNY   60  59  97 CALM      29.95S FOG
EAU CLAIRE     MOSUNNY   60  60 100 SW3       29.94R FOG
MENOMONIE      FOG       58  58 100 CALM      29.95S VSB 3/4
NEW RICHMOND   SUNNY     60  60 100 SW6       29.96R FOG
OSCEOLA        SUNNY     58  58 100 CALM      29.98R
$$

WIZ003>005-009-010-017-018-191400-
NORTH CENTRAL WISCONSIN

CITY           SKY/WX    TMP DP  RH WIND       PRES   REMARKS
MANITOWISH WTR SUNNY     58  58 100 SW3       29.92S
ARBOR VITAE    SUNNY     60  59  96 CALM      29.92S
WOODRUFF       SUNNY     60  59  96 CALM      29.92S
RHINELANDER    MOSUNNY   62  61  96 W5        29.94R
EAGLE RIVER    SUNNY     59  59 100 W6        29.92R
LAND O LAKES   SUNNY     60  60 100 CALM      29.93R
PHILLIPS       SUNNY     60  60  99 W3        29.93R
TOMAHAWK         N/A     59  58  97 W3        29.94S
MEDFORD        FOG       59  58  99 W5        29.95R VSB 1/4
MERRILL        MOSUNNY   63  63 100 SW3       29.95R
$$

WIZ029-030-035-036-043>047-191400-
CENTRAL WISCONSIN

CITY           SKY/WX    TMP DP  RH WIND       PRES   REMARKS
WAUSAU         CLOUDY    61  60  97 W6        29.93R FOG
MOSINEE        MOSUNNY   61  61 100 W5        29.96R FOG
MARSHFIELD     SUNNY     61  59  93 W5        29.95R FOG
STEVENS POINT  PTSUNNY   59  59 100 CALM      29.96S FOG
WAUPACA        MOSUNNY   66  64  94 W5        29.95R
WAUTOMA        NOT AVBL
WISC RAPIDS    PTSUNNY   61  61 100 W5        29.97R FOG
CAMP DOUGLAS   SUNNY     59  59 100 CALM      29.96R
$$

WIZ011>013-019>022-031-037>040-048>050-191400-
NORTHEAST WISCONSIN

CITY           SKY/WX    TMP DP  RH WIND       PRES   REMARKS
ANTIGO         CLOUDY    61  61 100 W5        29.95R FOG
SHAWANO        SUNNY     67  63  86 W5        29.92R
OCONTO         CLOUDY    61  60  97 W10       29.90S
STURGEON BAY   SUNNY     64  62  93 W7        29.90S
GREEN BAY      CLOUDY    64  64 100 W8        29.93R
MANITOWOC      CLOUDY    63  61  93 W7        29.93S FOG
APPLETON       CLOUDY    63  63 100 W6        29.93R FOG
CLINTONVILLE   MOSUNNY   64  63  94 W5        29.93R
OSHKOSH        CLOUDY    65  62  90 W7        29.94R FOG
$$

WIZ032>034-041-042-053>061-191400-
SOUTHWEST WISCONSIN

CITY           SKY/WX    TMP DP  RH WIND       PRES   REMARKS
LA CROSSE      FOG       60  59  96 SE3       29.95R VSB 1/4
SPARTA         FOG       54  54 100 CALM      29.97S VSB 1/2
VIROQUA        SUNNY     61  61 100 CALM      29.97R
BOSCOBEL       FOG       58  58 100 CALM      29.98R VSB<1/4
PRAIRIE DU CHI FOG       58  56  96 CALM      29.97S VSB<1/4
PLATTEVILLE    SUNNY     60  60 100 CALM      29.98R
$$

WIZ056-057-062-063-064-067-068-191400-
SOUTH CENTRAL WISCONSIN

CITY           SKY/WX    TMP DP  RH WIND       PRES   REMARKS
REEDSBURG      SUNNY     58  58 100 CALM      29.97R
BARABOO/DELLS  SUNNY     61  60  96 CALM      29.97R
LONE ROCK      FOG       58  58 100 CALM      29.97R VSB<1/4
MINERAL POINT  SUNNY     61  61 100 CALM      29.98R
MADISON        SUNNY     64  61  90 CALM      29.96R
MIDDLETON      SUNNY     62  62 100 CALM      29.97S
WATERTOWN      FOG       61  61 100 N3        29.95R VSB 1
MONROE         SUNNY     63  59  88 CALM      29.97R
JANESVILLE     SUNNY     63  63 100 CALM      29.95R
$$

WIZ051-052-058>065-066-070>072-191400-
SOUTHEAST WISCONSIN

CITY           SKY/WX    TMP DP  RH WIND       PRES   REMARKS
MILWAUKEE      SUNNY     67  63  87 NW3       29.94R
WAUKESHA       CLOUDY    61  61 100 W6        29.96R FOG
MILWAUKEE/TIMM CLOUDY    63  59  88 NW6       29.95S FOG
RACINE         SUNNY     66  63  90 NW6       29.96R
KENOSHA        SUNNY     66  62  87 NW5       29.95S
FOND DU LAC    CLOUDY    65  62  90 W6        29.95R FOG
SHEBOYGAN      MOSUNNY   66  65  96 W12       29.93S
WEST BEND      PTSUNNY   63  61  94 NW8       29.95S
JUNEAU         CLOUDY    62  61  98 CALM      29.96S FOG
$$

LSZ147-162-191400-
LAKE SUPERIOR

STATION/POSITION TIME  TEMP    WIND        PRES    WAVE
                       AIR SEA DIR/SP/G            HT/PER
                 (UTC) (F)     (DEG/KT/KT) (MB)    (FT/S)
W MID LAKE BUOY  1250   61 60  250/ 12/ 14 1010.0R   2/ 4
DEVILS ISLAND    1300   61     230/ 14/ 15 1011.2R
SAXON HARBOR     1230   64     200/  8/ 11 1011.5R
$$

LMZ867-665-643>646-191400-
LAKE MICHIGAN

STATION/POSITION TIME  TEMP    WIND        PRES    WAVE
                       AIR SEA DIR/SP/G            HT/PER
                 (UTC) (F)     (DEG/KT/KT) (MB)    (FT/S)
S GREEN BAY BUOY 1300   63 70  240/ 12/ 14 1012.5
N MID LAKE BUOY  1250   65 66  230/ 10/ 12 1012.1R   1
NORTHPORT PIER   1240   67     270/  2/  7 1011.9R
KEWAUNEE LAKESHO 1248   62     290/  6/ 10 1012.0R
SHEBOYGAN LAKESH 1300   65     280/ 11/ 13 1012.9R
PORT WASHINGTON  1240   67     290/  5/ 11 1014.6R
ATWATER BUOY     1209   65 70  300/  6/  8 1014.0R
MILWAUKEE LAKESH 1250   66     290/  6/  7   N/A
S MID LAKE BUOY  1250   69 71  350/  6/  6 1013.6R   1/ 3
KENOSHA   LAKESH 1300   66     360/  5/  7 1013.9
$$

TC  - TEMPERATURE IN CELSIUS
VSB - VISIBILITY IN STATUTE MILES
WCI - WIND CHILL INDEX
HX  - HEAT INDEX





USA.gov is the U.S. government's official web portal to all federal, state and local government web resources and services.